Kalispell, MT

10:47 PM MDT on August 16, 2017 (GMT -0600)
Glacier Park International

Weather History for KGPI - October, 2012

Change the Weather History Date:

Wednesday, October 17, 2012

  Actual Average Record
Temperature  
Mean Temperature 39 °F 42 °F  
Max Temperature 53 °F 54 °F 72 °F (1974)
Min Temperature 25 °F 29 °F 15 °F (1905)
Degree Days  
Heating Degree Days 26 23  
Month to date heating degree days 327 346  
Since 1 July heating degree days 713 846  
Cooling Degree Days 0 0  
Month to date cooling degree days 0 0  
Year to date cooling degree days 192 147  
Moisture  
Dew Point 25 °F    
Average Humidity 57    
Maximum Humidity 85    
Minimum Humidity 28    
Precipitation  
Precipitation 0.00 in 0.03 in 0.55 in (1905)
Month to date precipitation 0.89 0.50  
Year to date precipitation 15.84 13.49  
Snow  
Snow 0.00 in - - ()
Month to date snowfall 0.0  
Year to date snowfall 25.1  
Since 1 July snowfall 0.0  
Snow Depth 0.00 in    
Sea Level Pressure  
Sea Level Pressure 30.14 in    
Wind  
Wind Speed 7 mph (SW)    
Max Wind Speed 28 mph    
Max Gust Speed 23 mph    
Visibility 10 miles    
Events      
T = Trace of Precipitation, MM = Missing Value Source: NWS Daily Summary

Daily Weather History Graph

Daily Weather History Graph

Search for Another Location

Airport or City:

Trip Planner

Search our weather history database for the weather conditions in past years. The results will help you decide how hot, cold, wet, or windy it might be!

Date:

Astronomy

Oct. 17, 2012 Rise Set
Actual Time 8:00 AM MDT 6:43 PM MDT
Civil Twilight 7:28 AM MDT 7:14 PM MDT
Nautical Twilight 6:52 AM MDT 7:50 PM MDT
Astronomical Twilight 6:16 AM MDT 8:26 PM MDT
Moon 10:54 AM MDT 8:07 PM MDT
Length of Visible Light 11h 45m
Length of Day
10h 42m
Waxing Crescent, 7% of the Moon is Illuminated
Oct 17
Waxing Crescent
Oct 21
First Quarter
Oct 29
Full
Nov 6
Last Quarter
Nov 13
New

Hourly Weather History & Observations

Time (MDT) Temp. Windchill Dew Point Humidity Pressure Visibility Wind Dir Wind Speed Gust Speed Precip Events Conditions
12:55 AM 41.0 °F 36.4 °F 30.0 °F 65% 29.97 in 10.0 mi South 6.9 mph - N/A   Mostly Cloudy
3:55 AM 41.0 °F 33.9 °F 28.9 °F 62% 30.01 in 10.0 mi SW 12.7 mph - N/A   Overcast
4:55 AM 39.9 °F 33.4 °F 28.9 °F 65% 30.02 in 10.0 mi SSW 10.4 mph - N/A   Mostly Cloudy
5:55 AM 39.0 °F 31.8 °F 28.0 °F 65% 30.04 in 10.0 mi SSW 11.5 mph - N/A   Mostly Cloudy
6:55 AM 37.9 °F 31.5 °F 28.0 °F 68% 30.06 in 10.0 mi South 9.2 mph - N/A   Clear
7:55 AM 35.1 °F 27.9 °F 27.0 °F 72% 30.08 in 10.0 mi SW 9.2 mph - N/A   Clear
8:55 AM 39.0 °F 32.3 °F 28.0 °F 65% 30.11 in 10.0 mi SSW 10.4 mph - N/A   Clear
9:55 AM 42.8 °F 37.0 °F 28.4 °F 57% 30.08 in 10.0 mi South 10.4 mph - N/A   Clear
10:55 AM 46.9 °F - 27.0 °F 46% 30.14 in 10.0 mi SSW 11.5 mph - N/A   Clear
11:55 AM 48.0 °F - 25.0 °F 41% 30.14 in 10.0 mi West 11.5 mph 20.7 mph N/A   Mostly Cloudy
12:55 PM 51.1 °F - 23.0 °F 33% 30.14 in 10.0 mi West 12.7 mph 21.9 mph N/A   Scattered Clouds
1:55 PM 51.1 °F - 21.0 °F 31% 30.10 in 10.0 mi WNW 15.0 mph 20.7 mph N/A   Mostly Cloudy
2:55 PM 50.0 °F - 19.9 °F 31% 30.10 in 10.0 mi WNW 9.2 mph 23.0 mph N/A   Mostly Cloudy
3:55 PM 53.1 °F - 21.0 °F 29% 30.14 in 10.0 mi West 9.2 mph - N/A   Mostly Cloudy
4:55 PM 52.0 °F - 19.0 °F 27% 30.17 in 10.0 mi WNW 8.1 mph 18.4 mph N/A   Scattered Clouds
5:55 PM 50.0 °F - 19.9 °F 31% 30.19 in 10.0 mi West 11.5 mph 18.4 mph N/A   Scattered Clouds
6:55 PM 45.0 °F 42.6 °F 21.9 °F 40% 30.22 in 10.0 mi WSW 4.6 mph - N/A   Clear
7:55 PM 39.0 °F 34.8 °F 23.0 °F 53% 30.26 in 10.0 mi West 5.8 mph - N/A   Clear
8:55 PM 37.9 °F - 24.1 °F 57% 30.29 in 10.0 mi Calm Calm - N/A   Clear
9:55 PM 32.0 °F 26.4 °F 24.1 °F 73% 30.30 in 10.0 mi SSW 5.8 mph - N/A   Clear
10:55 PM 28.9 °F - 25.0 °F 85% 30.31 in 10.0 mi Calm Calm - N/A   Clear
11:55 PM 26.1 °F - 23.0 °F 88% 30.31 in 10.0 mi Calm Calm - N/A   Clear